Regional Weather Roundup
Issued by NWS

Home | Current Version | Previous Version | Graphics & Text | Print | Product List | Glossary On
Versions: 1 2 3 4 5 6 7 8 9 10 11 12 13 14 15 16 17 18 19 20 21 22 23 24 25 26 27 28 29 30 31 32 33 34 35 36 37 38 39 40 41 42 43 44 45 46 47 48 49 50
533
ASUS43 KMPX 230201
RWRMN
WEATHER ROUNDUP FOR MINNESOTA
NATIONAL WEATHER SERVICE TWIN CITIES/CHANHASSEN MN
900 PM CDT THU JUN 22 2017


NOTE: "FAIR" INDICATES FEW OR NO CLOUDS BELOW 12,000 FEET WITH NO
SIGNIFICANT WEATHER AND/OR OBSTRUCTIONS TO VISIBILITY. N/A MEANS
CURRENT SKY AND/OR WEATHER CONDITIONS ARE NOT AVAILABLE.

MNZ060>063-068>070-230300-
   Twin Cities Metro

CITY           SKY/WX    TMP DP  RH WIND       PRES   REMARKS
TWIN CITIES    MOCLDY    69  61  75 NW9       29.74S
ST PAUL        PTCLDY    68  64  87 W8        29.74S
CRYSTAL        CLOUDY    68  55  63 W6        29.73S
BLAINE         MOCLDY    70  61  73 W5        29.74S
LAKEVILLE      CLOUDY    66  66 100 NW5       29.74F
EDEN PRAIRIE   CLOUDY    68  61  78 NW3       29.74S
SOUTH ST PAUL  PTCLDY    68  65  89 W5        29.73F
LAKE ELMO      FAIR      66  64  94 CALM      29.75S
$$
MNZ001>005-007-008-013>017-022>024-027-028-230300-
   Northwest Minnesota

CITY           SKY/WX    TMP DP  RH WIND       PRES   REMARKS
BEMIDJI        CLEAR     66  39  37 W9        29.69S
HALLOCK        CLOUDY    64  45  48 W17G26    29.64R
ROSEAU           N/A     63  46  55 W10       29.62F
WARROAD        MOCLDY    63  46  55 W14G23    29.62S
CROOKSTON      CLEAR     66  43  42 NW12      29.69R
FOSSTON        CLEAR     64  43  45 SW6       29.70F
DETROIT LAKES  CLEAR     68  36  30 W7        29.75S
MOORHEAD       CLEAR     72  36  26 W12       29.73S
PARK RAPIDS    CLEAR     68  36  30 W9        29.72S
MAHNOMEN       FAIR      64  43  46 W9        29.71S
$$
MNZ006-009>011-018-025>026-230300-
   North Central Minnesota

CITY           SKY/WX    TMP DP  RH WIND       PRES   REMARKS
BAUDETTE       PTCLDY    64  43  46 W12G20    29.62R
FLAG ISLAND    CLOUDY    63  43  48 W15G24    29.57F
INTL FALLS     CLEAR     65  38  36 W7        29.62R
WASKISH        PTCLDY    66  46  48 W14G23    29.65S
BIG FORK       CLEAR     63  43  48 SW5       29.68R
LONGVILLE      CLEAR     64  45  48 W5        29.71S
GRAND RAPIDS   PTCLDY    68  42  38 W7G16     29.71R
CRANE LAKE     CLEAR     66  39  37 SW5       29.65R
ORR            PTCLDY    64  36  34 CALM      29.63S
COOK           CLEAR     66  41  39 W6        29.67R
WALKER         FAIR      65  41  42 W8        29.71S
$$
MNZ012-019>021-037-230300-
   Northeast Minnesota

CITY           SKY/WX    TMP DP  RH WIND       PRES   REMARKS
DULUTH         MOCLDY    67  50  54 W16G24    29.69R
ELY            PTCLDY    63  52  67 CALM      29.65S
HIBBING        CLOUDY    65  46  50 W6        29.67R
EVELETH        MOCLDY    65  40  38 W6        29.68R
DULUTH HARBOR  CLOUDY    72  55  56 SW13G23   29.67R
TWO HARBORS    CLOUDY    66  57  72 W7        29.66R
SILVER BAY     CLOUDY    63  55  77 W5        29.65R
GRAND MARAIS     N/A     66  47  50 NW8       29.61S
G MARAIS ARPRT MOCLDY    57  45  62 CALM      29.67F
$$
MNZ029>031-032-039>041-046>048-054>057-064-230300-
   West Central Minnesota

CITY           SKY/WX    TMP DP  RH WIND       PRES   REMARKS
FERGUS FALLS   CLEAR     66  46  48 NW8       29.73S
WHEATON        CLEAR     70  45  40 NW5       29.78S
MORRIS         CLEAR     70  55  60 SW7       29.76F
ALEXANDRIA     PTCLDY    69  54  58 SW10      29.78R
ELBOW LAKE     FAIR      68  45  43 W8        29.77S
WADENA         CLEAR     66  43  42 W7        29.74S
GLENWOOD       CLEAR     64  57  77 SW7       29.78S
APPLETON       PTCLDY    70  54  56 SW6       29.77S
BENSON         CLEAR     68  55  64 W7        29.79R
ORTONVILLE     PTCLDY    70  57  64 SW5       29.77S
MADISON        CLEAR     70  57  64 SW5       29.78S
WILLMAR        FAIR      68  57  68 W3        29.78F
$$
MNZ033>034-036-042>043-049>051-058-059-230300-
   Central Minnesota

CITY           SKY/WX    TMP DP  RH WIND       PRES   REMARKS
ST CLOUD       CLEAR     66  53  63 W8        29.75S
SAUK CENTRE    FAIR      66  56  71 SW9       29.77R
PAYNESVILLE    CLEAR     67  56  66 W5        29.77S
AITKIN         PTCLDY    68  50  52 W3        29.70S
PINE RIVER     CLEAR     70  45  40 W3        29.76R
BRAINERD       CLEAR     70  48  45 W9        29.73R
STAPLES        CLEAR     68  41  37 W8        29.74S
LONG PRAIRIE   FAIR      66  55  68 S7        29.77R
LITTLE FALLS   CLOUDY    68  54  60 SW6       29.75S
LITCHFIELD     CLOUDY    70  57  64 CALM      29.77S
BUFFALO        CLEAR     66  56  68 CALM      29.76S
MAPLE LAKE     CLEAR     66  56  69 CALM      29.76S
HUTCHINSON     CLOUDY    65  58  76 CALM      29.78S
$$
MNZ037-044-045-052-053-230300-
   East Central Minnesota

CITY           SKY/WX    TMP DP  RH WIND       PRES   REMARKS
PRINCETON      CLEAR     66  54  63 CALM      29.74F
MORA           CLEAR     64  48  55 W5        29.75S
CAMBRIDGE      CLEAR     70  54  56 CALM      29.72F
RUSH CITY      CLEAR     66  52  59 CALM      29.73S
MOOSE LAKE     CLEAR     64  52  63 SW6       29.69S
HINCKLEY       FAIR      63  54  72 W5        29.72F
CLOQUET        CLOUDY    63  54  72 SW7       29.70S
MCGREGOR       CLOUDY    68  55  64 SW3       29.71S
$$
MNZ071>073-080-081-089-090-097-098-230300-
   Southwest Minnesota

CITY           SKY/WX    TMP DP  RH WIND       PRES   REMARKS
MONTEVIDEO     CLEAR     70  57  64 CALM      29.78S
GRANITE FALLS  CLEAR     69  58  69 W5        29.80R
CANBY          CLEAR     69  55  62 CALM      29.80S
MARSHALL       CLEAR     67  57  70 NW6       29.80R
REDWOOD FALLS  CLEAR     64  57  78 W5        29.77S
OLIVIA         CLEAR     68  59  73 CALM      29.77S
PIPESTONE      MOCLDY    68  52  56 N3        29.82R
WINDOM         CLOUDY    64  54  68 N6        29.79S
WORTHINGTON    CLOUDY    65  54  67 N9        29.81R
JACKSON        CLOUDY    64  55  72 N8        29.79R
TRACY          PTCLDY    65  59  80 NW3       29.80S
SLAYTON        CLOUDY    64  52  64 N5        29.82R
$$
MNZ065>067-074>077-082>085-091>093-230300-
   South Central Minnesota

CITY           SKY/WX    TMP DP  RH WIND       PRES   REMARKS
MANKATO        CLOUDY    67  63  87 N7        29.75S
NEW ULM        CLOUDY    64  55  72 NW3       29.77S
ST JAMES       CLOUDY    66  54  63 NW9       29.77S
FAIRMONT       CLOUDY    67  62  84 N10       29.76R
GLENCOE        CLOUDY    66  62  85 CALM      29.76S
FARIBAULT      PTCLDY    66  64  94 N3        29.75S
OWATONNA       DRIZZLE   66  64  94 N5        29.75S
WASECA         CLOUDY    64  61  88 N3        29.76S
ALBERT LEA     CLOUDY    70  66  88 N10       29.74S
$$
MNZ078>079-086>088-094>096-230300-
   Southeast Minnesota

CITY           SKY/WX    TMP DP  RH WIND       PRES   REMARKS
ROCHESTER      CLOUDY    67  65  93 N13       29.74S
RED WING       CLOUDY    66  63  88 CALM      29.72S
STANTON        CLOUDY    67  65  91 CALM      29.73S FOG
DODGE CENTER   CLOUDY    66  63  88 N7        29.74S
WINONA         CLOUDY    70  68  94 CALM      29.72S
AUSTIN         CLOUDY    66  64  94 N7        29.72F
PRESTON        CLOUDY    68  66  93 N7        29.72S FOG
$$
ABBREVIATIONS USED IN REMARKS
   TC - TEMPERATURES IN CELSIUS
  WCI - WIND CHILL INDEX
   HX - HEAT INDEX
  VSB - VISIBILITY
$$




USA.gov is the U.S. government's official web portal to all federal, state and local government web resources and services.